Location: Caltech
(34.1382°N, 118.1253°W)
Time: 01:38:49
(UTC-07:00)

Cosmos 2219 - Visible Passes

Search period start: 29 July 2014 00:00
Search period end: 08 August 2014 00:00
Orbit: 834 x 861 km, 71.1° (Epoch: 28 July)

Date Brightness Start Highest point End Pass type
(mag) Time Alt. Az. Time Alt. Az. Time Alt. Az.
29 Jul 3.2 20:51:36 10° SSW 20:57:19 80° ESE 21:03:04 10° NNE visible
29 Jul 6.2 22:39:24 10° W 22:42:07 13° NW 22:44:50 10° NNW visible
30 Jul 3.2 20:38:15 10° SSW 20:43:58 78° ESE 20:49:43 10° NNE visible
30 Jul 6.2 22:25:56 10° W 22:28:45 14° NW 22:31:35 10° NNW visible
31 Jul 6.2 05:38:01 10° NNE 05:42:03 20° ENE 05:46:02 10° ESE visible
31 Jul 3.2 20:24:55 10° SSW 20:30:38 76° ESE 20:36:22 10° NNE visible
31 Jul 6.3 22:12:28 10° W 22:15:23 14° NW 22:18:19 10° NNW visible
01 Aug 6.3 05:24:43 10° NNE 05:28:41 19° ENE 05:32:37 10° ESE visible
01 Aug 3.2 20:11:35 10° SSW 20:17:17 74° ESE 20:23:01 10° NNE visible
01 Aug 6.3 21:59:00 10° W 22:02:01 14° NW 22:05:03 10° NNW visible
02 Aug 6.3 05:11:26 10° NNE 05:15:19 19° ENE 05:19:11 10° E visible
02 Aug 6.3 21:45:33 10° W 21:48:39 15° NW 21:51:47 10° NNW visible
03 Aug 6.3 04:58:08 10° NNE 05:01:58 18° ENE 05:05:45 10° E visible
03 Aug 6.4 21:32:06 10° W 21:35:18 15° NW 21:38:30 10° NNW visible
04 Aug 6.2 04:44:50 10° NNE 04:48:36 18° ENE 04:52:20 10° E visible
04 Aug 6.4 21:18:39 10° W 21:21:56 15° NW 21:25:14 10° NNW visible
05 Aug 6.2 04:31:33 10° NNE 04:35:14 18° ENE 04:38:54 10° E visible
05 Aug 6.4 21:05:12 10° W 21:08:34 16° NW 21:11:57 10° NNW visible
06 Aug 6.2 04:18:16 10° NNE 04:21:53 17° ENE 04:25:28 10° E visible
06 Aug 6.4 20:51:46 10° W 20:55:13 16° NW 20:58:40 10° NNW visible
07 Aug 6.1 04:04:58 10° NNE 04:08:31 17° NE 04:12:02 10° E visible
07 Aug 6.4 20:38:20 10° W 20:41:51 16° NW 20:45:23 10° NNW visible
